Weather History for KIPJ - October, 2013

Change the Weather History Date:

Thursday, October 31, 2013

  Actual Average (KCLT) Record (KCLT)
Temperature  
Mean Temperature 60 °F 56 °F  
Max Temperature 69 °F 68 °F 85 °F (1950)
Min Temperature 50 °F 44 °F 29 °F (2008)
Degree Days  
Heating Degree Days 6 10  
Month to date heating degree days 184  
Since 1 July heating degree days 206  
Cooling Degree Days 0 0  
Month to date cooling degree days 38  
Year to date cooling degree days 1513  
Growing Degree Days 10 (Base 50)    
Moisture  
Dew Point 54 °F    
Average Humidity 80    
Maximum Humidity 100    
Minimum Humidity 56    
Precipitation  
Precipitation 0.00 in 0.10 in 1.68 in (1887)
Month to date precipitation 3.40  
Year to date precipitation 35.24  
Snow  
Snow 0.00 in 0.00 in T in (1887)
Month to date snowfall 0.0  
Since 1 July snowfall 0.0  
Since 1 September snowfall 0.0  
Snow Depth -    
Sea Level Pressure  
Sea Level Pressure 30.08 in    
Wind  
Wind Speed 1 mph (SW)    
Max Wind Speed 8 mph    
Max Gust Speed -    
Visibility 8 miles    
Events      
T = Trace of Precipitation, MM = Missing Value Source: NWS Daily Summary

Daily Weather History Graph

Daily Weather History Graph

Search for Another Location

Airport or City:

Trip Planner

Search our weather history database for the weather conditions in past years. The results will help you decide how hot, cold, wet, or windy it might be!

Date:

Astronomy

Oct. 31, 2013 Rise Set
Actual Time 7:45 AM EDT 6:30 PM EDT
Civil Twilight 7:19 AM EDT 6:56 PM EDT
Nautical Twilight 6:49 AM EDT 7:26 PM EDT
Astronomical Twilight 6:19 AM EDT 7:56 PM EDT
Moon 4:39 AM EDT (10/31) 4:42 PM EDT (10/31)
Length of Visible Light 11h 37m
Length of Day
10h 44m
Waning Crescent, 10% of the Moon is Illuminated
Oct 31
Waning Crescent
Nov 3
New
Nov 10
First Quarter
Nov 17
Full
Nov 25
Last Quarter

Hourly Weather History & Observations

Time (EDT) Temp. Dew Point Humidity Pressure Visibility Wind Dir Wind Speed Gust Speed Precip Events Conditions
12:15 AM 53.6 °F 53.6 °F 100% 30.19 in 7.0 mi Calm Calm - N/A   Clear
12:35 AM 53.6 °F 53.6 °F 100% 30.19 in 7.0 mi Calm Calm - N/A   Clear
12:55 AM 53.6 °F 51.8 °F 94% 30.18 in 7.0 mi Calm Calm - N/A   Clear
1:15 AM 53.6 °F 51.8 °F 94% 30.19 in 5.0 mi Calm Calm - N/A   Clear
1:35 AM 53.6 °F 51.8 °F 94% 30.19 in 7.0 mi Calm Calm - N/A   Clear
1:55 AM 53.6 °F 51.8 °F 94% 30.18 in 7.0 mi Calm Calm - N/A   Clear
2:15 AM 53.6 °F 51.8 °F 94% 30.18 in 7.0 mi Calm Calm - N/A   Clear
2:37 AM 53.6 °F 51.8 °F 94% 30.18 in 7.0 mi Calm Calm - N/A   Clear
2:55 AM 51.8 °F 51.8 °F 100% 30.18 in 7.0 mi Calm Calm - N/A   Clear
3:15 AM 51.8 °F 50.0 °F 94% 30.18 in 4.0 mi Calm Calm - N/A   Clear
3:35 AM 51.8 °F 50.0 °F 94% 30.18 in 4.0 mi Calm Calm - N/A   Clear
3:55 AM 51.8 °F 51.8 °F 100% 30.17 in 7.0 mi Calm Calm - N/A   Clear
4:15 AM 51.8 °F 50.0 °F 94% 30.17 in 5.0 mi Calm Calm - N/A   Clear
4:35 AM 51.8 °F 50.0 °F 94% 30.16 in 4.0 mi Calm Calm - N/A   Clear
4:55 AM 50.0 °F 48.2 °F 94% 30.16 in 3.0 mi Calm Calm - N/A   Clear
5:15 AM 51.8 °F 50.0 °F 94% 30.16 in 7.0 mi Calm Calm - N/A   Clear
5:35 AM 50.0 °F 48.2 °F 94% 30.16 in 5.0 mi Calm Calm - N/A   Clear
5:55 AM 50.0 °F 48.2 °F 94% 30.16 in 4.0 mi Calm Calm - N/A   Clear
6:15 AM 50.0 °F 48.2 °F 94% 30.16 in 4.0 mi Calm Calm - N/A   Clear
6:35 AM 51.8 °F 50.0 °F 94% 30.17 in 7.0 mi Calm Calm - N/A   Clear
6:57 AM 51.8 °F 50.0 °F 94% 30.16 in 7.0 mi Calm Calm - N/A   Clear
7:15 AM 51.8 °F 50.0 °F 94% 30.15 in 4.0 mi Calm Calm - N/A   Clear
7:35 AM 51.8 °F 51.8 °F 100% 30.16 in 7.0 mi Calm Calm - N/A   Clear
7:55 AM 51.8 °F 50.0 °F 94% 30.15 in 4.0 mi Calm Calm - N/A   Clear
8:15 AM 51.8 °F 50.0 °F 94% 30.16 in 4.0 mi Calm Calm - N/A   Clear
8:35 AM 53.6 °F 51.8 °F 94% 30.16 in 7.0 mi Calm Calm - N/A   Clear
8:55 AM 55.4 °F 55.4 °F 100% 30.17 in 10.0 mi Calm Calm - N/A   Clear
9:15 AM 59.0 °F 55.4 °F 88% 30.17 in 10.0 mi West 3.5 mph - N/A   Clear
9:35 AM 60.8 °F 55.4 °F 82% 30.16 in 10.0 mi Calm Calm - N/A   Clear
9:55 AM 60.8 °F 55.4 °F 82% 30.16 in 10.0 mi WSW 3.5 mph - N/A   Clear
10:15 AM 62.6 °F 55.4 °F 77% 30.16 in 10.0 mi West 3.5 mph - N/A   Clear
10:35 AM 62.6 °F 53.6 °F 72% 30.16 in 10.0 mi WSW 5.8 mph - N/A   Clear
10:55 AM 64.4 °F 53.6 °F 68% 30.15 in 10.0 mi WSW 5.8 mph - N/A   Clear
11:15 AM 64.4 °F 53.6 °F 68% 30.14 in 10.0 mi WSW 3.5 mph - N/A   Clear
11:35 AM 64.4 °F 53.6 °F 68% 30.14 in 10.0 mi WSW 3.5 mph - N/A   Clear
11:55 AM 64.4 °F 51.8 °F 64% 30.13 in 10.0 mi West 4.6 mph - N/A   Clear
12:15 PM 66.2 °F 53.6 °F 64% 30.12 in 10.0 mi Calm Calm - N/A   Clear
12:35 PM 66.2 °F 53.6 °F 64% 30.11 in 10.0 mi WSW 5.8 mph - N/A   Clear
12:55 PM 66.2 °F 53.6 °F 64% 30.11 in 10.0 mi WSW 4.6 mph - N/A   Clear
1:15 PM 66.2 °F 53.6 °F 64% 30.10 in 10.0 mi SSW 4.6 mph - N/A   Clear
1:35 PM 66.2 °F 53.6 °F 64% 30.08 in 10.0 mi Calm Calm - N/A   Clear
1:55 PM 66.2 °F 53.6 °F 64% 30.08 in 10.0 mi WSW 3.5 mph - N/A   Clear
2:15 PM 66.2 °F 53.6 °F 64% 30.07 in 10.0 mi South 4.6 mph - N/A   Clear
2:35 PM 66.2 °F 53.6 °F 64% 30.06 in 7.0 mi SSW 4.6 mph - N/A   Scattered Clouds
2:55 PM 68.0 °F 53.6 °F 60% 30.05 in 10.0 mi SSW 5.8 mph - N/A   Mostly Cloudy
3:15 PM 69.8 °F 53.6 °F 56% 30.04 in 10.0 mi SSW 3.5 mph - N/A   Mostly Cloudy
3:35 PM 69.8 °F 53.6 °F 56% 30.04 in 10.0 mi South 6.9 mph - N/A   Scattered Clouds
3:55 PM 69.8 °F 53.6 °F 56% 30.02 in 10.0 mi South 8.1 mph - N/A   Scattered Clouds
4:15 PM 69.8 °F 55.4 °F 60% 30.02 in 10.0 mi SSW 6.9 mph - N/A   Clear
4:35 PM 69.8 °F 55.4 °F 60% 30.01 in 10.0 mi SSW 4.6 mph - N/A   Clear
4:56 PM 68.0 °F 55.4 °F 64% 30.00 in 10.0 mi SW 3.5 mph - N/A   Clear
5:15 PM 68.0 °F 55.4 °F 64% 29.98 in 10.0 mi Calm Calm - N/A   Clear
5:35 PM 68.0 °F 55.4 °F 64% 29.97 in 10.0 mi Calm Calm - N/A   Clear
5:55 PM 66.2 °F 55.4 °F 68% 29.97 in 10.0 mi Calm Calm - N/A   Clear
6:15 PM 66.2 °F 57.2 °F 73% 29.96 in 10.0 mi Calm Calm - N/A   Clear
6:35 PM 64.4 °F 57.2 °F 77% 29.95 in 10.0 mi Calm Calm - N/A   Clear
6:55 PM 64.4 °F 57.2 °F 77% 29.96 in 10.0 mi Calm Calm - N/A   Scattered Clouds
7:15 PM 64.4 °F 57.2 °F 77% 29.96 in 10.0 mi Calm Calm - N/A   Mostly Cloudy
7:35 PM 66.2 °F 57.2 °F 73% 29.96 in 10.0 mi Calm Calm - N/A   Mostly Cloudy
8:15 PM 64.4 °F 57.2 °F 77% 29.96 in 10.0 mi Calm Calm - N/A   Mostly Cloudy
8:35 PM 64.4 °F 57.2 °F 77% 29.96 in 10.0 mi Calm Calm - N/A   Mostly Cloudy
8:55 PM 64.4 °F 57.2 °F 77% 29.95 in 10.0 mi Calm Calm - N/A   Mostly Cloudy
9:16 PM 64.4 °F 57.2 °F 77% 29.95 in 10.0 mi Calm Calm - N/A   Scattered Clouds
9:35 PM 64.4 °F 57.2 °F 77% 29.94 in 10.0 mi Calm Calm - N/A   Clear
9:55 PM 66.2 °F 59.0 °F 78% 29.94 in 10.0 mi SW 3.5 mph - N/A   Clear
10:16 PM 66.2 °F 60.8 °F 83% 29.93 in 10.0 mi SW 4.6 mph - N/A   Clear
10:35 PM 66.2 °F 60.8 °F 83% 29.93 in 10.0 mi SW 5.8 mph - N/A   Scattered Clouds
10:57 PM 66.2 °F 60.8 °F 83% 29.93 in 10.0 mi SSW 6.9 mph - N/A   Scattered Clouds
11:15 PM 66.2 °F 60.8 °F 83% 29.92 in 10.0 mi SSW 5.8 mph - N/A   Mostly Cloudy
11:35 PM 68.0 °F 60.8 °F 78% 29.92 in 10.0 mi SSW 5.8 mph - N/A   Overcast
11:55 PM 68.0 °F 60.8 °F 78% 29.90 in 10.0 mi SSW 5.8 mph - N/A   Overcast